Altus, OK

1:21 AM CDT on April 27, 2017 (GMT -0500)
Altus Municipal

Weather History for KAXS - December, 2011

Change the Weather History Date:

Thursday, December 29, 2011

  Actual Average (KLTS) Record (KLTS)
Temperature  
Mean Temperature 48 °F -  
Max Temperature 66 °F 49 °F 71 °F (2005)
Min Temperature 30 °F 25 °F 19 °F (2007)
Degree Days  
Heating Degree Days 17    
Moisture  
Dew Point 34 °F    
Average Humidity 64    
Maximum Humidity 90    
Minimum Humidity 30    
Precipitation  
Precipitation 0.00 in - - ()
Sea Level Pressure  
Sea Level Pressure 29.87 in    
Wind  
Wind Speed 5 mph (South)    
Max Wind Speed 16 mph    
Max Gust Speed -    
Visibility 10 miles    
Events      
Averages and records for this station are not official NWS values.
T = Trace of Precipitation, MM = Missing Value Source: NWS Daily Summary

Daily Weather History Graph

Daily Weather History Graph

Search for Another Location

Airport or City:

Trip Planner

Search our weather history database for the weather conditions in past years. The results will help you decide how hot, cold, wet, or windy it might be!

Date:

Astronomy

Dec. 29, 2011 Rise Set
Actual Time 7:43 AM CST 5:35 PM CST
Civil Twilight 7:15 AM CST 6:03 PM CST
Nautical Twilight 6:44 AM CST 6:34 PM CST
Astronomical Twilight 6:13 AM CST 7:05 PM CST
Moon 10:50 AM CST (12/29) 10:59 PM CST (12/29)
Length of Visible Light 10h 47m
Length of Day
9h 51m
Waxing Crescent, 27% of the Moon is Illuminated
Dec 29
Waxing Crescent
Jan 1
First Quarter
Jan 9
Full
Jan 16
Last Quarter
Jan 23
New

Hourly Weather History & Observations

Time (CST) Temp. Windchill Dew Point Humidity Pressure Visibility Wind Dir Wind Speed Gust Speed Precip Events Conditions
12:15 AM 38.5 °F 35.0 °F 32.9 °F 80% 30.04 in 10.0 mi SSW 4.6 mph - N/A   Clear
12:35 AM 37.6 °F - 32.4 °F 81% 30.04 in 10.0 mi Calm Calm - N/A   Clear
1:15 AM 37.2 °F 34.7 °F 32.4 °F 83% 30.03 in 10.0 mi WSW 3.5 mph - N/A   Clear
1:35 AM 36.9 °F - 32.2 °F 83% 30.03 in 10.0 mi Calm Calm - N/A   Clear
1:55 AM 36.5 °F - 32.0 °F 84% 30.02 in 10.0 mi Calm Calm - N/A   Clear
2:35 AM 35.1 °F 32.2 °F 31.5 °F 87% 30.01 in 10.0 mi South 3.5 mph - N/A   Clear
2:55 AM 34.3 °F 31.4 °F 30.7 °F 87% 30.01 in 10.0 mi South 3.5 mph - N/A   Clear
3:15 AM 33.4 °F 29.1 °F 30.0 °F 87% 30.01 in 10.0 mi SW 4.6 mph - N/A   Clear
3:35 AM 32.5 °F 28.1 °F 29.7 °F 89% 30.01 in 10.0 mi WSW 4.6 mph - N/A   Clear
7:35 AM 31.1 °F 27.7 °F 28.4 °F 90% 29.96 in 10.0 mi SW 3.5 mph - N/A   Clear
8:15 AM 30.7 °F - 27.9 °F 89% 29.96 in 10.0 mi Calm Calm - N/A   Clear
8:35 AM 31.8 °F - 28.2 °F 87% 29.97 in 10.0 mi Calm Calm - N/A   Clear
8:55 AM 32.2 °F - 29.1 °F 88% 29.97 in 10.0 mi Calm Calm - N/A   Clear
9:15 AM 33.4 °F 30.4 °F 29.8 °F 87% 29.97 in 10.0 mi SW 3.5 mph - N/A   Clear
9:35 AM 34.7 °F 31.8 °F 30.7 °F 85% 29.96 in 10.0 mi SSW 3.5 mph - N/A   Clear
9:55 AM 37.0 °F 32.4 °F 32.0 °F 82% 29.96 in 10.0 mi SSW 5.8 mph - N/A   Clear
10:15 AM 39.2 °F 35.0 °F 32.9 °F 78% 29.96 in 10.0 mi SSW 5.8 mph - N/A   Clear
10:35 AM 42.1 °F 37.7 °F 34.2 °F 74% 29.95 in 10.0 mi SW 6.9 mph - N/A   Clear
10:55 AM 44.8 °F 42.4 °F 35.1 °F 69% 29.95 in 10.0 mi SSW 4.6 mph - N/A   Clear
11:15 AM 46.0 °F 43.9 °F 35.6 °F 67% 29.94 in 10.0 mi SW 4.6 mph - N/A   Clear
11:35 AM 47.5 °F - 36.1 °F 65% 29.92 in 10.0 mi SSW 3.5 mph - N/A   Clear
11:55 AM 49.1 °F - 36.1 °F 61% 29.91 in 10.0 mi South 4.6 mph - N/A   Clear
12:55 PM 55.0 °F - 36.9 °F 50% 29.85 in 10.0 mi South 8.1 mph - N/A   Clear
1:15 PM 57.6 °F - 36.0 °F 44% 29.84 in 10.0 mi SSW 10.4 mph - N/A   Clear
1:35 PM 59.5 °F - 35.6 °F 41% 29.83 in 10.0 mi SSW 10.4 mph - N/A   Clear
1:55 PM 61.3 °F - 35.4 °F 38% 29.82 in 10.0 mi SSW 12.7 mph - N/A   Clear
2:15 PM 62.8 °F - 34.5 °F 35% 29.81 in 10.0 mi SSW 15.0 mph - N/A   Clear
2:55 PM 64.6 °F - 33.6 °F 32% 29.79 in 10.0 mi SSW 12.7 mph - N/A   Clear
3:15 PM 65.5 °F - 33.8 °F 31% 29.79 in 10.0 mi South 16.1 mph - N/A   Clear
3:35 PM 65.8 °F - 34.0 °F 31% 29.79 in 10.0 mi South 11.5 mph - N/A   Clear
3:55 PM 66.0 °F - 34.3 °F 31% 29.79 in 10.0 mi South 9.2 mph - N/A   Clear
4:15 PM 66.2 °F - 34.0 °F 30% 29.76 in 10.0 mi South 9.2 mph - N/A   Clear
5:15 PM 63.1 °F - 34.2 °F 34% 29.75 in 10.0 mi South 12.7 mph - N/A   Clear
5:35 PM 60.4 °F - 34.9 °F 38% 29.76 in 10.0 mi SSE 8.1 mph - N/A   Clear
6:15 PM 54.3 °F - 36.7 °F 51% 29.77 in 10.0 mi SSE 5.8 mph - N/A   Clear
6:35 PM 55.0 °F - 35.6 °F 48% 29.78 in 10.0 mi SE 5.8 mph - N/A   Clear
6:55 PM 54.7 °F - 35.2 °F 48% 29.79 in 10.0 mi SSE 3.5 mph - N/A   Clear
7:15 PM 54.0 °F - 35.4 °F 50% 29.79 in 10.0 mi SE 4.6 mph - N/A   Clear
7:35 PM 53.1 °F - 35.4 °F 51% 29.79 in 10.0 mi SE 4.6 mph - N/A   Clear
7:55 PM 51.3 °F - 35.4 °F 55% 29.77 in 10.0 mi SE 8.1 mph - N/A   Clear
8:15 PM 49.3 °F - 35.8 °F 60% 29.76 in 10.0 mi ESE 9.2 mph - N/A   Clear
8:35 PM 48.6 °F - 36.5 °F 63% 29.79 in 10.0 mi East 4.6 mph - N/A   Clear
8:55 PM 47.8 °F - 36.3 °F 64% 29.78 in 10.0 mi East 5.8 mph - N/A   Clear
9:35 PM 47.3 °F - 35.8 °F 64% 29.78 in 10.0 mi ESE 5.8 mph - N/A   Clear
9:55 PM 47.3 °F - 35.6 °F 64% 29.79 in 10.0 mi ESE 4.6 mph - N/A   Clear
10:15 PM 47.5 °F - 35.6 °F 63% 29.80 in 10.0 mi East 4.6 mph - N/A   Clear
10:35 PM 47.3 °F - 35.2 °F 63% 29.80 in 10.0 mi East 4.6 mph - N/A   Clear
10:55 PM 47.1 °F - 34.9 °F 62% 29.80 in 10.0 mi East 5.8 mph - N/A   Clear
11:15 PM 46.2 °F 45.0 °F 34.7 °F 64% 29.81 in 10.0 mi ENE 3.5 mph - N/A   Clear
11:35 PM 43.0 °F 37.7 °F 34.2 °F 71% 29.82 in 10.0 mi NNW 9.2 mph - N/A   Clear
11:55 PM 39.6 °F 33.0 °F 34.2 °F 81% 29.82 in 10.0 mi NNW 10.4 mph - N/A   Clear